Time,TemperatureF,DewpointF,PressureIn,WindDirection,WindDirectionDegrees,WindSpeedMPH,WindSpeedGustMPH,Humidity,HourlyPrecipIn,Conditions,Clouds,dailyrainin,SoftwareType,DateUTC
2013-03-11 00:00:00,58.4,53.6,30.01,NW,319,0.0,0.0,84,0.00,,---,0.00,VWS V14.01,2013-03-11 04:00:00,
2013-03-11 00:01:00,58.4,53.6,30.01,NW,319,0.0,0.0,84,0.00,,---,0.00,VWS V14.01,2013-03-11 04:01:00,
2013-03-11 00:06:00,58.3,53.8,30.01,NW,319,0.0,0.0,85,0.00,,---,0.00,VWS V14.01,2013-03-11 04:06:00,
2013-03-11 00:11:00,57.8,53.7,30.01,NW,319,0.0,0.0,86,0.00,,---,0.00,VWS V14.01,2013-03-11 04:11:00,
2013-03-11 00:16:00,57.5,53.3,30.01,NW,319,0.0,0.0,86,0.00,,---,0.00,VWS V14.01,2013-03-11 04:16:00,
2013-03-11 00:21:00,57.3,53.2,30.01,NW,319,0.0,0.0,86,0.00,,---,0.00,VWS V14.01,2013-03-11 04:21:00,
2013-03-11 00:26:00,57.0,52.9,30.01,NW,319,0.0,0.0,86,0.00,,---,0.00,VWS V14.01,2013-03-11 04:26:00,
2013-03-11 00:30:00,56.9,52.8,30.00,NW,319,0.0,0.0,86,0.00,,---,0.00,VWS V14.01,2013-03-11 04:30:00,
2013-03-11 00:31:00,56.9,52.8,30.00,NW,319,0.0,0.0,86,0.00,,---,0.00,VWS V14.01,2013-03-11 04:31:00,
2013-03-11 00:37:00,56.6,53.1,30.00,NW,319,0.0,0.0,88,0.00,,---,0.00,VWS V14.01,2013-03-11 04:37:00,
2013-03-11 00:42:00,56.5,53.0,30.00,NW,319,0.0,0.0,88,0.00,,---,0.00,VWS V14.01,2013-03-11 04:42:00,
2013-03-11 00:47:00,56.2,53.0,30.00,NW,319,0.0,0.0,89,0.00,,---,0.00,VWS V14.01,2013-03-11 04:47:00,
2013-03-11 00:52:00,56.0,52.8,30.00,NW,319,0.0,0.0,89,0.00,,---,0.00,VWS V14.01,2013-03-11 04:52:00,
2013-03-11 00:57:00,55.7,52.5,30.00,NW,319,0.0,0.0,89,0.00,,---,0.00,VWS V14.01,2013-03-11 04:57:00,
2013-03-11 01:00:00,55.7,52.5,30.00,NW,319,0.0,0.0,89,0.00,,---,0.00,VWS V14.01,2013-03-11 05:00:00,
2013-03-11 01:02:00,55.6,52.4,30.00,NW,319,0.0,0.0,89,0.00,,---,0.00,VWS V14.01,2013-03-11 05:02:00,
2013-03-11 01:07:00,55.4,52.2,30.00,NW,319,0.0,0.0,89,0.00,,---,0.00,VWS V14.01,2013-03-11 05:07:00,
2013-03-11 01:12:00,55.3,52.1,30.00,NW,319,0.0,0.0,89,0.00,,---,0.00,VWS V14.01,2013-03-11 05:12:00,
2013-03-11 01:17:00,55.3,52.1,30.00,NW,319,0.0,0.0,89,0.00,,---,0.00,VWS V14.01,2013-03-11 05:17:00,
2013-03-11 01:22:00,55.3,52.1,30.00,NW,319,0.0,0.0,89,0.00,,---,0.00,VWS V14.01,2013-03-11 05:22:00,
2013-03-11 01:27:00,54.7,51.8,30.00,NW,319,0.0,0.0,90,0.00,,---,0.00,VWS V14.01,2013-03-11 05:27:00,
2013-03-11 01:30:00,54.7,51.8,30.00,NW,319,0.0,0.0,90,0.00,,---,0.00,VWS V14.01,2013-03-11 05:30:00,
2013-03-11 01:33:00,54.5,51.6,30.00,NW,319,0.0,0.0,90,0.00,,---,0.00,VWS V14.01,2013-03-11 05:33:00,
2013-03-11 01:38:00,54.5,51.6,30.00,NW,319,0.0,0.0,90,0.00,,---,0.00,VWS V14.01,2013-03-11 05:38:00,
2013-03-11 01:43:00,54.2,51.6,30.00,NW,319,0.0,0.0,91,0.00,,---,0.00,VWS V14.01,2013-03-11 05:43:00,
2013-03-11 01:48:00,54.2,51.6,29.99,NW,319,0.0,0.0,91,0.00,,---,0.00,VWS V14.01,2013-03-11 05:48:00,
2013-03-11 01:53:00,54.1,51.5,29.99,NW,319,0.0,0.0,91,0.00,,---,0.00,VWS V14.01,2013-03-11 05:53:00,
2013-03-11 01:58:00,54.1,51.5,29.99,NW,319,0.0,0.0,91,0.00,,---,0.00,VWS V14.01,2013-03-11 05:58:00,
2013-03-11 02:00:00,54.1,51.5,29.99,NW,319,0.0,0.0,91,0.00,,---,0.00,VWS V14.01,2013-03-11 06:00:00,
2013-03-11 02:03:00,53.8,51.2,29.99,NW,319,0.0,0.0,91,0.00,,---,0.00,VWS V14.01,2013-03-11 06:03:00,
2013-03-11 02:08:00,53.8,51.2,29.99,NW,319,0.0,0.0,91,0.00,,---,0.00,VWS V14.01,2013-03-11 06:08:00,
2013-03-11 02:13:00,53.6,51.0,29.99,NW,319,0.0,0.0,91,0.00,,---,0.00,VWS V14.01,2013-03-11 06:13:00,
2013-03-11 02:18:00,53.5,50.9,29.99,NW,319,0.0,0.0,91,0.00,,---,0.00,VWS V14.01,2013-03-11 06:18:00,
2013-03-11 02:23:00,53.5,50.9,29.99,NW,319,0.0,0.0,91,0.00,,---,0.00,VWS V14.01,2013-03-11 06:23:00,
2013-03-11 02:28:00,53.3,50.7,29.99,NW,319,0.0,0.0,91,0.00,,---,0.00,VWS V14.01,2013-03-11 06:28:00,
2013-03-11 02:30:00,53.3,50.7,29.98,NW,319,0.0,0.0,91,0.00,,---,0.00,VWS V14.01,2013-03-11 06:30:00,
2013-03-11 02:33:00,53.3,50.7,29.98,NW,319,0.0,0.0,91,0.00,,---,0.00,VWS V14.01,2013-03-11 06:33:00,
2013-03-11 02:38:00,53.1,50.5,29.98,NW,319,0.0,0.0,91,0.00,,---,0.00,VWS V14.01,2013-03-11 06:38:00,
2013-03-11 02:43:00,53.1,50.5,29.98,NW,319,0.0,0.0,91,0.00,,---,0.00,VWS V14.01,2013-03-11 06:43:00,
2013-03-11 02:48:00,53.1,50.5,29.98,NW,319,0.0,0.0,91,0.00,,---,0.00,VWS V14.01,2013-03-11 06:48:00,
2013-03-11 02:53:00,53.1,50.5,29.98,NW,319,0.0,0.0,91,0.00,,---,0.00,VWS V14.01,2013-03-11 06:53:00,
2013-03-11 02:59:00,53.1,50.5,29.98,NW,319,0.0,0.0,91,0.00,,---,0.00,VWS V14.01,2013-03-11 06:59:00,
2013-03-11 03:00:00,52.8,50.2,29.97,NW,319,0.0,0.0,91,0.00,,---,0.00,VWS V14.01,2013-03-11 07:00:00,
2013-03-11 03:04:00,52.8,51.1,29.97,NW,319,0.0,0.0,94,0.00,,---,0.00,VWS V14.01,2013-03-11 07:04:00,
2013-03-11 03:09:00,52.8,51.1,29.97,NW,319,0.0,0.0,94,0.00,,---,0.00,VWS V14.01,2013-03-11 07:09:00,
2013-03-11 03:14:00,52.6,50.9,29.97,NW,319,0.0,0.0,94,0.00,,---,0.00,VWS V14.01,2013-03-11 07:14:00,
2013-03-11 03:19:00,52.6,50.9,29.97,NW,319,0.0,0.0,94,0.00,,---,0.00,VWS V14.01,2013-03-11 07:19:00,
2013-03-11 03:24:00,52.5,50.8,29.97,NW,319,0.0,0.0,94,0.00,,---,0.00,VWS V14.01,2013-03-11 07:24:00,
2013-03-11 03:29:00,52.3,50.6,29.97,NW,319,0.0,0.0,94,0.00,,---,0.00,VWS V14.01,2013-03-11 07:29:00,
2013-03-11 03:30:00,52.3,50.6,29.97,NW,319,0.0,0.0,94,0.00,,---,0.00,VWS V14.01,2013-03-11 07:30:00,
2013-03-11 03:34:00,52.3,50.6,29.97,NW,319,0.0,0.0,94,0.00,,---,0.00,VWS V14.01,2013-03-11 07:34:00,
2013-03-11 03:39:00,52.0,50.3,29.97,NW,319,0.0,0.0,94,0.00,,---,0.00,VWS V14.01,2013-03-11 07:39:00,
2013-03-11 03:44:00,52.0,50.3,29.96,NW,319,0.0,0.0,94,0.00,,---,0.00,VWS V14.01,2013-03-11 07:44:00,
2013-03-11 03:49:00,51.9,50.2,29.96,NW,319,0.0,0.0,94,0.00,,---,0.00,VWS V14.01,2013-03-11 07:49:00,
2013-03-11 03:54:00,51.9,50.2,29.96,NW,319,0.0,0.0,94,0.00,,---,0.00,VWS V14.01,2013-03-11 07:54:00,
2013-03-11 04:00:00,51.9,50.5,29.95,NW,319,0.0,0.0,95,0.00,,---,0.00,VWS V14.01,2013-03-11 08:00:00,
2013-03-11 04:05:00,51.9,50.5,29.95,NW,319,0.0,0.0,95,0.00,,---,0.00,VWS V14.01,2013-03-11 08:05:00,
2013-03-11 04:10:00,51.9,50.5,29.95,NW,319,0.0,0.0,95,0.00,,---,0.00,VWS V14.01,2013-03-11 08:10:00,
2013-03-11 04:14:00,51.7,50.3,29.95,NW,319,0.0,0.0,95,0.00,,---,0.00,VWS V14.01,2013-03-11 08:14:00,
2013-03-11 04:20:00,51.7,50.3,29.95,NW,319,0.0,0.0,95,0.00,,---,0.00,VWS V14.01,2013-03-11 08:20:00,
2013-03-11 04:25:00,51.7,50.3,29.95,NW,319,0.0,0.0,95,0.00,,---,0.00,VWS V14.01,2013-03-11 08:25:00,
2013-03-11 04:30:00,51.7,50.3,29.93,NW,319,0.0,0.0,95,0.00,,---,0.00,VWS V14.01,2013-03-11 08:30:00,
2013-03-11 04:35:00,51.7,50.3,29.93,NW,319,0.0,0.0,95,0.00,,---,0.00,VWS V14.01,2013-03-11 08:35:00,
2013-03-11 04:40:00,51.7,50.6,29.93,NW,319,0.0,0.0,96,0.00,,---,0.00,VWS V14.01,2013-03-11 08:40:00,
2013-03-11 04:45:00,51.7,50.6,29.93,NW,319,0.0,0.0,96,0.00,,---,0.00,VWS V14.01,2013-03-11 08:45:00,
2013-03-11 04:50:00,51.7,50.6,29.93,NW,319,0.0,0.0,96,0.00,,---,0.00,VWS V14.01,2013-03-11 08:50:00,
2013-03-11 04:55:00,51.7,50.6,29.93,NW,319,0.0,0.0,96,0.00,,---,0.00,VWS V14.01,2013-03-11 08:55:00,
2013-03-11 05:00:00,51.7,50.6,29.92,NW,319,0.0,0.0,96,0.00,,---,0.00,VWS V14.01,2013-03-11 09:00:00,
2013-03-11 05:05:00,51.7,50.6,29.92,NW,319,0.0,0.0,96,0.00,,---,0.00,VWS V14.01,2013-03-11 09:05:00,
2013-03-11 05:10:00,51.7,50.6,29.92,NW,319,0.0,0.0,96,0.00,,---,0.00,VWS V14.01,2013-03-11 09:10:00,
2013-03-11 05:15:00,51.7,50.6,29.92,NW,319,0.0,0.0,96,0.00,,---,0.00,VWS V14.01,2013-03-11 09:15:00,
2013-03-11 05:21:00,51.7,50.6,29.92,NW,319,0.0,0.0,96,0.00,,---,0.00,VWS V14.01,2013-03-11 09:21:00,
2013-03-11 05:26:00,51.7,50.6,29.92,NW,319,0.0,0.0,96,0.00,,---,0.00,VWS V14.01,2013-03-11 09:26:00,
2013-03-11 05:30:00,51.7,50.6,29.92,NW,319,0.0,0.0,96,0.00,,---,0.00,VWS V14.01,2013-03-11 09:30:00,
2013-03-11 05:31:00,51.7,50.6,29.92,NW,319,0.0,0.0,96,0.00,,---,0.00,VWS V14.01,2013-03-11 09:31:00,
2013-03-11 05:36:00,51.7,50.6,29.92,NW,319,0.0,0.0,96,0.00,,---,0.00,VWS V14.01,2013-03-11 09:36:00,
2013-03-11 05:41:00,51.7,50.6,29.92,NW,319,0.0,0.0,96,0.00,,---,0.00,VWS V14.01,2013-03-11 09:41:00,
2013-03-11 05:46:00,51.7,50.6,29.92,NW,319,0.0,0.0,96,0.00,,---,0.00,VWS V14.01,2013-03-11 09:46:00,
2013-03-11 05:51:00,52.0,50.9,29.92,NW,319,0.0,0.0,96,0.00,,---,0.00,VWS V14.01,2013-03-11 09:51:00,
2013-03-11 05:56:00,52.3,51.5,29.92,NW,319,0.0,0.0,97,0.00,,---,0.00,VWS V14.01,2013-03-11 09:56:00,
2013-03-11 06:00:00,52.5,51.7,29.91,NW,319,0.0,0.0,97,0.00,,---,0.00,VWS V14.01,2013-03-11 10:00:00,
2013-03-11 06:01:00,52.6,51.8,29.91,NW,319,0.0,0.0,97,0.00,,---,0.00,VWS V14.01,2013-03-11 10:01:00,
2013-03-11 06:06:00,52.8,52.0,29.91,NW,319,0.0,0.0,97,0.00,,---,0.00,VWS V14.01,2013-03-11 10:06:00,
2013-03-11 06:11:00,52.8,52.0,29.91,NW,319,0.0,0.0,97,0.00,,---,0.00,VWS V14.01,2013-03-11 10:11:00,
2013-03-11 06:17:00,53.2,52.4,29.91,NW,319,0.0,0.0,97,0.00,,---,0.00,VWS V14.01,2013-03-11 10:17:00,
2013-03-11 06:22:00,53.2,52.4,29.91,NW,319,0.0,0.0,97,0.00,,---,0.00,VWS V14.01,2013-03-11 10:22:00,
2013-03-11 06:27:00,53.2,52.4,29.91,NW,319,0.0,0.0,97,0.00,,---,0.00,VWS V14.01,2013-03-11 10:27:00,
2013-03-11 06:30:00,53.2,52.4,29.92,NW,319,0.0,0.0,97,0.00,,---,0.00,VWS V14.01,2013-03-11 10:30:00,
2013-03-11 06:32:00,53.2,52.4,29.92,NW,319,0.0,0.0,97,0.00,,---,0.00,VWS V14.01,2013-03-11 10:32:00,
2013-03-11 06:37:00,53.2,52.4,29.92,NW,319,0.0,0.0,97,0.00,,---,0.00,VWS V14.01,2013-03-11 10:37:00,
2013-03-11 06:42:00,53.2,52.4,29.92,NW,319,0.0,0.0,97,0.00,,---,0.00,VWS V14.01,2013-03-11 10:42:00,
2013-03-11 06:47:00,53.2,52.4,29.92,NW,319,0.0,0.0,97,0.00,,---,0.00,VWS V14.01,2013-03-11 10:47:00,
2013-03-11 06:52:00,53.2,52.4,29.92,NW,319,0.0,0.0,97,0.00,,---,0.00,VWS V14.01,2013-03-11 10:52:00,
2013-03-11 06:57:00,53.2,52.4,29.92,NW,319,0.0,0.0,97,0.00,,---,0.00,VWS V14.01,2013-03-11 10:57:00,
2013-03-11 07:00:00,53.2,52.4,29.92,NW,319,0.0,0.0,97,0.00,,---,0.00,VWS V14.01,2013-03-11 11:00:00,
2013-03-11 07:02:00,53.2,52.4,29.92,NW,319,0.0,0.0,97,0.00,,---,0.00,VWS V14.01,2013-03-11 11:02:00,
2013-03-11 07:07:00,53.2,52.4,29.92,NW,319,0.0,0.0,97,0.00,,---,0.00,VWS V14.01,2013-03-11 11:07:00,
2013-03-11 07:12:00,53.2,52.4,29.92,NW,319,0.0,0.0,97,0.00,,---,0.00,VWS V14.01,2013-03-11 11:12:00,
2013-03-11 07:17:00,53.2,52.7,29.93,NW,319,0.0,0.0,98,0.00,,---,0.00,VWS V14.01,2013-03-11 11:17:00,
2013-03-11 07:22:00,53.3,52.8,29.93,NW,319,0.0,0.0,98,0.00,,---,0.00,VWS V14.01,2013-03-11 11:22:00,
2013-03-11 07:27:00,53.3,52.8,29.93,NW,319,0.0,0.0,98,0.00,,---,0.00,VWS V14.01,2013-03-11 11:27:00,
2013-03-11 07:30:00,53.2,52.7,29.93,NW,319,0.0,0.0,98,0.00,,---,0.00,VWS V14.01,2013-03-11 11:30:00,
2013-03-11 07:32:00,53.2,52.7,29.93,NW,319,0.0,0.0,98,0.00,,---,0.00,VWS V14.01,2013-03-11 11:32:00,
2013-03-11 07:38:00,53.2,52.7,29.93,NW,319,0.0,0.0,98,0.00,,---,0.00,VWS V14.01,2013-03-11 11:38:00,
2013-03-11 07:43:00,53.3,52.8,29.93,NW,319,0.0,0.0,98,0.00,,---,0.00,VWS V14.01,2013-03-11 11:43:00,
2013-03-11 07:48:00,53.2,52.7,29.93,NW,319,0.0,0.0,98,0.00,,---,0.00,VWS V14.01,2013-03-11 11:48:00,
2013-03-11 07:53:00,53.2,52.7,29.93,NW,319,0.0,0.0,98,0.00,,---,0.00,VWS V14.01,2013-03-11 11:53:00,
2013-03-11 07:58:00,53.2,52.7,29.93,NW,319,0.0,0.0,98,0.00,,---,0.00,VWS V14.01,2013-03-11 11:58:00,
2013-03-11 08:00:00,53.2,52.7,29.93,NW,319,0.0,0.0,98,0.00,,---,0.00,VWS V14.01,2013-03-11 12:00:00,
2013-03-11 08:03:00,53.2,52.7,29.93,NW,319,0.0,0.0,98,0.00,,---,0.00,VWS V14.01,2013-03-11 12:03:00,
2013-03-11 08:08:00,53.2,52.7,29.93,NW,319,0.0,0.0,98,0.00,,---,0.00,VWS V14.01,2013-03-11 12:08:00,
2013-03-11 08:13:00,53.2,52.7,29.93,NW,319,0.0,0.0,98,0.00,,---,0.00,VWS V14.01,2013-03-11 12:13:00,
2013-03-11 08:18:00,53.8,53.2,29.93,NW,319,0.0,0.0,98,0.00,,---,0.00,VWS V14.01,2013-03-11 12:18:00,
2013-03-11 08:23:00,53.8,53.2,29.93,NW,319,0.0,0.0,98,0.00,,---,0.00,VWS V14.01,2013-03-11 12:23:00,
2013-03-11 08:29:00,53.8,53.2,29.93,NW,319,0.0,0.0,98,0.00,,---,0.00,VWS V14.01,2013-03-11 12:29:00,
2013-03-11 08:30:00,54.4,53.8,29.93,NW,319,0.0,0.0,98,0.00,,---,0.00,VWS V14.01,2013-03-11 12:30:00,
2013-03-11 08:34:00,54.5,54.0,29.93,NW,319,0.0,0.0,98,0.00,,---,0.00,VWS V14.01,2013-03-11 12:34:00,
2013-03-11 08:39:00,55.1,54.8,29.93,NW,319,0.0,0.0,99,0.00,,---,0.00,VWS V14.01,2013-03-11 12:39:00,
2013-03-11 08:44:00,55.9,55.9,29.93,NW,319,0.0,0.0,100,0.00,,---,0.00,VWS V14.01,2013-03-11 12:44:00,
2013-03-11 08:49:00,56.7,56.7,29.93,NW,319,0.0,0.0,100,0.00,,---,0.00,VWS V14.01,2013-03-11 12:49:00,
2013-03-11 08:54:00,57.2,57.2,29.93,NW,319,0.0,0.0,100,0.00,,---,0.00,VWS V14.01,2013-03-11 12:54:00,
2013-03-11 08:59:00,57.6,57.3,29.93,NW,319,0.0,0.0,99,0.00,,---,0.00,VWS V14.01,2013-03-11 12:59:00,
2013-03-11 09:00:00,57.8,57.5,29.93,NW,319,0.0,0.0,99,0.00,,---,0.00,VWS V14.01,2013-03-11 13:00:00,
2013-03-11 09:04:00,58.3,58.0,29.93,NW,319,0.0,0.0,99,0.00,,---,0.00,VWS V14.01,2013-03-11 13:04:00,
2013-03-11 09:09:00,58.7,58.4,29.93,NW,312,0.0,1.0,99,0.00,,---,0.00,VWS V14.01,2013-03-11 13:09:00,
2013-03-11 09:14:00,59.2,58.3,29.93,West,270,0.0,1.0,97,0.00,,---,0.00,VWS V14.01,2013-03-11 13:14:00,
2013-03-11 09:19:00,59.8,58.7,29.93,South,184,0.0,1.0,96,0.00,,---,0.00,VWS V14.01,2013-03-11 13:19:00,
2013-03-11 09:24:00,60.4,58.7,29.93,South,184,0.0,1.0,94,0.00,,---,0.00,VWS V14.01,2013-03-11 13:24:00,
2013-03-11 09:29:00,60.9,58.3,29.93,SSW,200,0.0,1.0,91,0.00,,---,0.00,VWS V14.01,2013-03-11 13:29:00,
2013-03-11 09:30:00,61.0,58.4,29.93,SSW,200,0.0,1.0,91,0.00,,---,0.00,VWS V14.01,2013-03-11 13:30:00,
2013-03-11 09:35:00,61.5,58.2,29.93,SSW,200,0.0,0.0,89,0.00,,---,0.00,VWS V14.01,2013-03-11 13:35:00,
2013-03-11 09:40:00,62.1,57.9,29.93,SE,145,0.0,1.0,86,0.00,,---,0.00,VWS V14.01,2013-03-11 13:40:00,
2013-03-11 09:45:00,62.7,57.8,29.93,WNW,288,0.0,1.0,84,0.00,,---,0.00,VWS V14.01,2013-03-11 13:45:00,
2013-03-11 09:50:00,63.5,57.9,29.93,SW,236,0.0,1.0,82,0.00,,---,0.00,VWS V14.01,2013-03-11 13:50:00,
2013-03-11 09:55:00,64.3,58.0,29.93,WSW,237,0.0,1.0,80,0.00,,---,0.00,VWS V14.01,2013-03-11 13:55:00,
2013-03-11 10:00:00,65.2,58.2,29.93,SE,140,0.0,2.0,78,0.00,,---,0.00,VWS V14.01,2013-03-11 14:00:00,
2013-03-11 10:05:00,65.8,58.4,29.93,SSW,212,0.0,2.0,77,0.00,,---,0.00,VWS V14.01,2013-03-11 14:05:00,
2013-03-11 10:10:00,66.4,57.9,29.93,North,356,3.0,4.0,74,0.00,,---,0.00,VWS V14.01,2013-03-11 14:10:00,
2013-03-11 10:15:00,66.8,57.9,29.93,SW,220,0.0,4.0,73,0.00,,---,0.00,VWS V14.01,2013-03-11 14:15:00,
2013-03-11 10:20:00,67.4,58.1,29.93,SE,138,0.0,4.0,72,0.00,,---,0.00,VWS V14.01,2013-03-11 14:20:00,
2013-03-11 10:25:00,67.9,58.2,29.93,NE,41,0.0,4.0,71,0.00,,---,0.00,VWS V14.01,2013-03-11 14:25:00,
2013-03-11 10:30:00,68.8,58.6,29.94,SSE,148,0.0,2.0,70,0.00,,---,0.00,VWS V14.01,2013-03-11 14:30:00,
2013-03-11 10:36:00,69.3,58.3,29.94,West,267,0.0,3.0,68,0.00,,---,0.00,VWS V14.01,2013-03-11 14:36:00,
2013-03-11 10:41:00,69.9,58.0,29.94,SW,215,0.0,3.0,66,0.00,,---,0.00,VWS V14.01,2013-03-11 14:41:00,
2013-03-11 10:46:00,70.4,58.1,29.93,SE,126,1.0,3.0,65,0.00,,---,0.00,VWS V14.01,2013-03-11 14:46:00,
2013-03-11 10:52:00,70.6,58.3,29.93,SE,141,0.0,5.0,65,0.00,,---,0.00,VWS V14.01,2013-03-11 14:52:00,
2013-03-11 10:57:00,70.6,58.3,29.93,NNE,32,0.0,6.0,65,0.00,,---,0.00,VWS V14.01,2013-03-11 14:57:00,
2013-03-11 11:00:00,70.8,58.5,29.93,SE,145,2.0,6.0,65,0.00,,---,0.00,VWS V14.01,2013-03-11 15:00:00,
2013-03-11 11:02:00,70.8,58.5,29.93,West,264,0.0,2.0,65,0.00,,---,0.00,VWS V14.01,2013-03-11 15:02:00,
2013-03-11 11:07:00,70.9,58.6,29.93,WNW,282,3.0,3.0,65,0.00,,---,0.00,VWS V14.01,2013-03-11 15:07:00,
2013-03-11 11:12:00,70.9,58.1,29.93,North,349,0.0,8.0,64,0.00,,---,0.00,VWS V14.01,2013-03-11 15:12:00,
2013-03-11 11:17:00,71.1,58.3,29.93,WNW,288,2.0,8.0,64,0.00,,---,0.00,VWS V14.01,2013-03-11 15:17:00,
2013-03-11 11:22:00,71.3,58.5,29.93,SE,134,0.0,8.0,64,0.00,,---,0.00,VWS V14.01,2013-03-11 15:22:00,
2013-03-11 11:27:00,71.8,58.5,29.93,SSE,150,0.0,8.0,63,0.00,,---,0.00,VWS V14.01,2013-03-11 15:27:00,
2013-03-11 11:30:00,72.1,57.9,29.93,SE,144,2.0,8.0,61,0.00,,---,0.00,VWS V14.01,2013-03-11 15:30:00,
2013-03-11 11:32:00,72.3,58.6,29.93,SE,136,0.0,3.0,62,0.00,,---,0.00,VWS V14.01,2013-03-11 15:32:00,
2013-03-11 11:37:00,72.8,58.1,29.93,SSW,200,0.0,3.0,60,0.00,,---,0.00,VWS V14.01,2013-03-11 15:37:00,
2013-03-11 11:42:00,73.0,58.8,29.93,WSW,243,5.0,6.0,61,0.00,,---,0.00,VWS V14.01,2013-03-11 15:42:00,
2013-03-11 11:47:00,73.2,58.0,29.93,SW,224,0.0,6.0,59,0.00,,---,0.00,VWS V14.01,2013-03-11 15:47:00,
2013-03-11 11:52:00,73.0,58.3,29.93,NE,45,0.0,6.0,60,0.00,,---,0.00,VWS V14.01,2013-03-11 15:52:00,
2013-03-11 11:57:00,73.0,58.3,29.93,SE,126,0.0,6.0,60,0.00,,---,0.00,VWS V14.01,2013-03-11 15:57:00,
2013-03-11 12:00:00,73.0,57.4,29.93,West,267,0.0,6.0,58,0.00,,---,0.00,VWS V14.01,2013-03-11 16:00:00,
2013-03-11 12:02:00,73.0,57.8,29.93,North,356,6.0,6.0,59,0.00,,---,0.00,VWS V14.01,2013-03-11 16:02:00,
2013-03-11 12:08:00,73.2,57.5,29.93,SSE,148,0.0,7.0,58,0.00,,---,0.00,VWS V14.01,2013-03-11 16:08:00,
2013-03-11 12:13:00,73.5,58.3,29.93,SSE,151,0.0,7.0,59,0.00,,---,0.00,VWS V14.01,2013-03-11 16:13:00,
2013-03-11 12:18:00,73.9,57.7,29.93,ESE,116,0.0,7.0,57,0.00,,---,0.00,VWS V14.01,2013-03-11 16:18:00,
2013-03-11 12:23:00,74.2,58.0,29.93,ESE,123,0.0,7.0,57,0.00,,---,0.00,VWS V14.01,2013-03-11 16:23:00,
2013-03-11 12:28:00,74.2,57.5,29.93,East,99,0.0,7.0,56,0.00,,---,0.00,VWS V14.01,2013-03-11 16:28:00,
2013-03-11 12:30:00,74.2,57.5,29.93,SE,134,0.0,7.0,56,0.00,,---,0.00,VWS V14.01,2013-03-11 16:30:00,
2013-03-11 12:33:00,74.0,58.3,29.93,SE,137,0.0,2.0,58,0.00,,---,0.00,VWS V14.01,2013-03-11 16:33:00,
2013-03-11 12:38:00,74.2,58.0,29.93,SW,229,0.0,3.0,57,0.00,,---,0.00,VWS V14.01,2013-03-11 16:38:00,
2013-03-11 12:43:00,74.2,58.0,29.93,SE,145,1.0,3.0,57,0.00,,---,0.00,VWS V14.01,2013-03-11 16:43:00,
2013-03-11 12:48:00,74.0,57.8,29.93,SE,145,0.0,3.0,57,0.00,,---,0.00,VWS V14.01,2013-03-11 16:48:00,
2013-03-11 12:53:00,74.2,58.0,29.93,South,174,0.0,3.0,57,0.00,,---,0.00,VWS V14.01,2013-03-11 16:53:00,
2013-03-11 12:58:00,74.4,57.7,29.93,South,182,0.0,3.0,56,0.00,,---,0.00,VWS V14.01,2013-03-11 16:58:00,
2013-03-11 13:00:00,74.4,57.7,29.93,South,182,0.0,3.0,56,0.00,,---,0.00,VWS V14.01,2013-03-11 17:00:00,
2013-03-11 13:03:00,74.0,56.8,29.93,WSW,250,0.0,5.0,55,0.00,,---,0.00,VWS V14.01,2013-03-11 17:03:00,
2013-03-11 13:08:00,74.0,57.3,29.93,SSE,148,0.0,5.0,56,0.00,,---,0.00,VWS V14.01,2013-03-11 17:08:00,
2013-03-11 13:13:00,74.2,57.5,29.93,West,264,0.0,5.0,56,0.00,,---,0.00,VWS V14.01,2013-03-11 17:13:00,
2013-03-11 13:18:00,74.4,58.2,29.93,ENE,75,0.0,5.0,57,0.00,,---,0.00,VWS V14.01,2013-03-11 17:18:00,
2013-03-11 13:23:00,74.4,58.2,29.93,WNW,287,0.0,5.0,57,0.00,,---,0.00,VWS V14.01,2013-03-11 17:23:00,
2013-03-11 13:29:00,74.4,57.7,29.93,SSE,154,0.0,5.0,56,0.00,,---,0.00,VWS V14.01,2013-03-11 17:29:00,
2013-03-11 13:30:00,74.6,58.4,29.92,SSE,151,0.0,5.0,57,0.00,,---,0.00,VWS V14.01,2013-03-11 17:30:00,
2013-03-11 13:34:00,75.1,57.3,29.92,SSE,167,0.0,3.0,54,0.00,,---,0.00,VWS V14.01,2013-03-11 17:34:00,
2013-03-11 13:39:00,75.8,57.5,29.92,SSE,160,0.0,3.0,53,0.00,,---,0.00,VWS V14.01,2013-03-11 17:39:00,
2013-03-11 13:44:00,75.6,57.3,29.92,SE,127,0.0,6.0,53,0.00,,---,0.00,VWS V14.01,2013-03-11 17:44:00,
2013-03-11 13:49:00,75.8,57.5,29.91,South,176,0.0,6.0,53,0.00,,---,0.00,VWS V14.01,2013-03-11 17:49:00,
2013-03-11 13:54:00,76.3,57.4,29.91,SSE,147,0.0,6.0,52,0.00,,---,0.00,VWS V14.01,2013-03-11 17:54:00,
2013-03-11 13:59:00,76.7,57.8,29.91,SE,130,0.0,6.0,52,0.00,,---,0.00,VWS V14.01,2013-03-11 17:59:00,
2013-03-11 14:00:00,76.7,56.7,29.90,ESE,114,0.0,6.0,50,0.00,,---,0.00,VWS V14.01,2013-03-11 18:00:00,
2013-03-11 14:04:00,77.2,57.1,29.90,SE,131,0.0,7.0,50,0.00,,---,0.00,VWS V14.01,2013-03-11 18:04:00,
2013-03-11 14:09:00,77.4,56.2,29.90,SW,224,0.0,7.0,48,0.00,,---,0.00,VWS V14.01,2013-03-11 18:09:00,
2013-03-11 14:14:00,77.4,57.3,29.89,SSE,155,2.0,7.0,50,0.00,,---,0.00,VWS V14.01,2013-03-11 18:14:00,
2013-03-11 14:19:00,77.2,57.1,29.89,SE,128,0.0,7.0,50,0.00,,---,0.00,VWS V14.01,2013-03-11 18:19:00,
2013-03-11 14:24:00,76.8,57.3,29.89,SSE,157,0.0,7.0,51,0.00,,---,0.00,VWS V14.01,2013-03-11 18:24:00,
2013-03-11 14:29:00,76.8,57.3,29.88,SW,222,2.0,7.0,51,0.00,,---,0.00,VWS V14.01,2013-03-11 18:29:00,
2013-03-11 14:30:00,76.7,56.7,29.88,SW,222,0.0,7.0,50,0.00,,---,0.00,VWS V14.01,2013-03-11 18:30:00,
2013-03-11 14:34:00,76.7,56.7,29.88,SW,219,0.0,5.0,50,0.00,,---,0.00,VWS V14.01,2013-03-11 18:34:00,
2013-03-11 14:39:00,77.4,56.8,29.88,SSW,199,8.0,11.0,49,0.00,,---,0.00,VWS V14.01,2013-03-11 18:39:00,
2013-03-11 14:44:00,77.7,57.0,29.88,SSW,213,2.0,11.0,49,0.00,,---,0.00,VWS V14.01,2013-03-11 18:44:00,
2013-03-11 14:49:00,77.7,57.6,29.88,SW,220,1.0,11.0,50,0.00,,---,0.00,VWS V14.01,2013-03-11 18:49:00,
2013-03-11 14:54:00,77.9,57.8,29.88,SSE,152,0.0,11.0,50,0.00,,---,0.00,VWS V14.01,2013-03-11 18:54:00,
2013-03-11 14:59:00,78.3,56.4,29.87,West,264,5.0,11.0,47,0.00,,---,0.00,VWS V14.01,2013-03-11 18:59:00,
2013-03-11 15:00:00,78.5,56.6,29.87,West,264,0.0,11.0,47,0.00,,---,0.00,VWS V14.01,2013-03-11 19:00:00,
2013-03-11 15:05:00,79.0,57.1,29.87,SSE,155,0.0,7.0,47,0.00,,---,0.00,VWS V14.01,2013-03-11 19:05:00,
2013-03-11 15:10:00,79.4,56.8,29.87,WSW,247,0.0,12.0,46,0.00,,---,0.00,VWS V14.01,2013-03-11 19:10:00,
2013-03-11 15:15:00,79.0,57.1,29.86,WSW,248,0.0,12.0,47,0.00,,---,0.00,VWS V14.01,2013-03-11 19:15:00,
2013-03-11 15:20:00,78.6,56.7,29.86,SSE,155,0.0,12.0,47,0.00,,---,0.00,VWS V14.01,2013-03-11 19:20:00,
2013-03-11 15:25:00,78.8,56.9,29.86,SE,137,0.0,12.0,47,0.00,,---,0.00,VWS V14.01,2013-03-11 19:25:00,
2013-03-11 15:30:00,78.6,57.3,29.85,West,272,0.0,12.0,48,0.00,,---,0.00,VWS V14.01,2013-03-11 19:30:00,
2013-03-11 15:35:00,77.9,57.8,29.85,SE,124,0.0,6.0,50,0.00,,---,0.00,VWS V14.01,2013-03-11 19:35:00,
2013-03-11 15:40:00,77.7,57.6,29.85,SE,126,0.0,6.0,50,0.00,,---,0.00,VWS V14.01,2013-03-11 19:40:00,
2013-03-11 15:45:00,77.7,58.7,29.84,SE,130,0.0,6.0,52,0.00,,---,0.00,VWS V14.01,2013-03-11 19:45:00,
2013-03-11 15:50:00,77.7,57.6,29.84,SE,134,0.0,6.0,50,0.00,,---,0.00,VWS V14.01,2013-03-11 19:50:00,
2013-03-11 15:55:00,77.6,57.0,29.84,SSE,150,0.0,6.0,49,0.00,,---,0.00,VWS V14.01,2013-03-11 19:55:00,
2013-03-11 16:00:00,77.4,56.8,29.84,South,186,0.0,0.0,49,0.00,,---,0.00,VWS V14.01,2013-03-11 20:00:00,
2013-03-11 16:05:00,77.4,57.3,29.84,South,185,0.0,0.0,50,0.00,,---,0.00,VWS V14.01,2013-03-11 20:05:00,
2013-03-11 16:10:00,77.6,57.5,29.84,South,185,0.0,0.0,50,0.00,,---,0.00,VWS V14.01,2013-03-11 20:10:00,
2013-03-11 16:15:00,77.7,57.0,29.83,SSW,196,0.0,5.0,49,0.00,,---,0.00,VWS V14.01,2013-03-11 20:15:00,
2013-03-11 16:20:00,77.9,57.2,29.83,SSW,212,0.0,5.0,49,0.00,,---,0.00,VWS V14.01,2013-03-11 20:20:00,
2013-03-11 16:26:00,77.9,57.8,29.83,SSW,210,0.0,5.0,50,0.00,,---,0.00,VWS V14.01,2013-03-11 20:26:00,
2013-03-11 16:30:00,77.7,57.6,29.83,SE,145,0.0,5.0,50,0.00,,---,0.00,VWS V14.01,2013-03-11 20:30:00,
2013-03-11 16:31:00,77.6,57.5,29.83,SE,145,0.0,0.0,50,0.00,,---,0.00,VWS V14.01,2013-03-11 20:31:00,
2013-03-11 16:36:00,77.4,57.9,29.83,SE,145,0.0,0.0,51,0.00,,---,0.00,VWS V14.01,2013-03-11 20:36:00,
2013-03-11 16:41:00,77.4,58.4,29.83,SE,145,0.0,0.0,52,0.00,,---,0.00,VWS V14.01,2013-03-11 20:41:00,
2013-03-11 16:46:00,77.7,58.2,29.82,SE,145,0.0,0.0,51,0.00,,---,0.00,VWS V14.01,2013-03-11 20:46:00,
2013-03-11 16:51:00,77.9,57.8,29.82,West,272,5.0,6.0,50,0.00,,---,0.00,VWS V14.01,2013-03-11 20:51:00,
2013-03-11 16:56:00,77.7,57.0,29.82,ENE,65,0.0,6.0,49,0.00,,---,0.00,VWS V14.01,2013-03-11 20:56:00,
2013-03-11 17:00:00,77.4,57.3,29.83,East,88,0.0,6.0,50,0.00,,---,0.00,VWS V14.01,2013-03-11 21:00:00,
2013-03-11 17:02:00,77.2,57.1,29.83,East,86,0.0,1.0,50,0.00,,---,0.00,VWS V14.01,2013-03-11 21:02:00,
2013-03-11 17:07:00,77.0,58.0,29.83,East,86,0.0,1.0,52,0.00,,---,0.00,VWS V14.01,2013-03-11 21:07:00,
2013-03-11 17:12:00,77.2,57.1,29.83,WSW,256,0.0,3.0,50,0.00,,---,0.00,VWS V14.01,2013-03-11 21:12:00,
2013-03-11 17:17:00,77.2,56.6,29.82,WSW,241,0.0,6.0,49,0.00,,---,0.00,VWS V14.01,2013-03-11 21:17:00,
2013-03-11 17:22:00,77.2,56.6,29.82,SW,233,0.0,6.0,49,0.00,,---,0.00,VWS V14.01,2013-03-11 21:22:00,
2013-03-11 17:27:00,77.2,56.6,29.82,South,169,0.0,6.0,49,0.00,,---,0.00,VWS V14.01,2013-03-11 21:27:00,
2013-03-11 17:30:00,77.0,56.4,29.81,SSE,164,0.0,6.0,49,0.00,,---,0.00,VWS V14.01,2013-03-11 21:30:00,
2013-03-11 17:32:00,77.0,56.4,29.81,SSE,164,0.0,0.0,49,0.00,,---,0.00,VWS V14.01,2013-03-11 21:32:00,
2013-03-11 17:37:00,76.8,56.2,29.81,WSW,246,0.0,4.0,49,0.00,,---,0.00,VWS V14.01,2013-03-11 21:37:00,
2013-03-11 17:42:00,76.7,57.2,29.81,West,268,0.0,4.0,51,0.00,,---,0.00,VWS V14.01,2013-03-11 21:42:00,
2013-03-11 17:47:00,76.7,56.7,29.81,SW,226,0.0,4.0,50,0.00,,---,0.00,VWS V14.01,2013-03-11 21:47:00,
2013-03-11 17:53:00,76.7,56.7,29.81,SW,227,0.0,4.0,50,0.00,,---,0.00,VWS V14.01,2013-03-11 21:53:00,
2013-03-11 17:58:00,76.5,57.0,29.81,SW,222,5.0,6.0,51,0.00,,---,0.00,VWS V14.01,2013-03-11 21:58:00,
2013-03-11 18:00:00,76.5,57.0,29.81,WSW,244,1.0,6.0,51,0.00,,---,0.00,VWS V14.01,2013-03-11 22:00:00,
2013-03-11 18:03:00,76.5,57.0,29.81,WSW,244,0.0,2.0,51,0.00,,---,0.00,VWS V14.01,2013-03-11 22:03:00,
2013-03-11 18:08:00,76.3,57.9,29.81,SSW,213,0.0,4.0,53,0.00,,---,0.00,VWS V14.01,2013-03-11 22:08:00,
2013-03-11 18:13:00,76.1,57.2,29.81,SW,232,0.0,4.0,52,0.00,,---,0.00,VWS V14.01,2013-03-11 22:13:00,
2013-03-11 18:18:00,76.0,57.1,29.80,SW,233,0.0,4.0,52,0.00,,---,0.00,VWS V14.01,2013-03-11 22:18:00,
2013-03-11 18:23:00,75.8,57.5,29.80,SW,233,0.0,4.0,53,0.00,,---,0.00,VWS V14.01,2013-03-11 22:23:00,
2013-03-11 18:28:00,75.6,56.8,29.80,WSW,237,0.0,4.0,52,0.00,,---,0.00,VWS V14.01,2013-03-11 22:28:00,
2013-03-11 18:30:00,75.6,57.3,29.81,WSW,237,0.0,4.0,53,0.00,,---,0.00,VWS V14.01,2013-03-11 22:30:00,
2013-03-11 18:33:00,75.4,57.1,29.81,WSW,251,0.0,1.0,53,0.00,,---,0.00,VWS V14.01,2013-03-11 22:33:00,
2013-03-11 18:39:00,75.3,57.0,29.81,WSW,251,0.0,1.0,53,0.00,,---,0.00,VWS V14.01,2013-03-11 22:39:00,
2013-03-11 18:44:00,75.1,56.8,29.81,WSW,251,0.0,1.0,53,0.00,,---,0.00,VWS V14.01,2013-03-11 22:44:00,
2013-03-11 18:49:00,74.9,57.2,29.81,SW,236,0.0,2.0,54,0.00,,---,0.00,VWS V14.01,2013-03-11 22:49:00,
2013-03-11 18:54:00,74.9,57.2,29.81,SW,236,0.0,2.0,54,0.00,,---,0.00,VWS V14.01,2013-03-11 22:54:00,
2013-03-11 18:59:00,74.7,57.5,29.81,SW,236,0.0,2.0,55,0.00,,---,0.00,VWS V14.01,2013-03-11 22:59:00,
2013-03-11 19:00:00,74.7,57.5,29.81,SW,236,0.0,2.0,55,0.00,,---,0.00,VWS V14.01,2013-03-11 23:00:00,
2013-03-11 19:04:00,74.6,57.4,29.81,SW,236,0.0,0.0,55,0.00,,---,0.00,VWS V14.01,2013-03-11 23:04:00,
2013-03-11 19:09:00,74.6,57.4,29.81,SW,236,0.0,0.0,55,0.00,,---,0.00,VWS V14.01,2013-03-11 23:09:00,
2013-03-11 19:14:00,73.9,58.7,29.81,SW,236,0.0,0.0,59,0.00,,---,0.00,VWS V14.01,2013-03-11 23:14:00,
2013-03-11 19:20:00,73.5,58.3,29.81,SW,236,0.0,0.0,59,0.00,,---,0.00,VWS V14.01,2013-03-11 23:20:00,
2013-03-11 19:25:00,73.0,58.8,29.81,SW,236,0.0,0.0,61,0.00,,---,0.00,VWS V14.01,2013-03-11 23:25:00,
2013-03-11 19:30:00,72.5,59.2,29.80,SW,236,0.0,0.0,63,0.00,,---,0.00,VWS V14.01,2013-03-11 23:30:00,
2013-03-11 19:35:00,72.1,59.3,29.80,SW,236,0.0,0.0,64,0.00,,---,0.00,VWS V14.01,2013-03-11 23:35:00,
2013-03-11 19:40:00,71.6,59.2,29.80,SW,236,0.0,0.0,65,0.00,,---,0.00,VWS V14.01,2013-03-11 23:40:00,
2013-03-11 19:45:00,70.9,59.0,29.79,SW,236,0.0,0.0,66,0.00,,---,0.00,VWS V14.01,2013-03-11 23:45:00,
2013-03-11 19:50:00,70.6,59.5,29.79,SW,236,0.0,0.0,68,0.00,,---,0.00,VWS V14.01,2013-03-11 23:50:00,
2013-03-11 19:55:00,70.3,59.2,29.79,SW,236,0.0,0.0,68,0.00,,---,0.00,VWS V14.01,2013-03-11 23:55:00,
2013-03-11 20:00:00,69.9,59.3,29.78,SW,236,0.0,0.0,69,0.00,,---,0.00,VWS V14.01,2013-03-12 00:00:00,
2013-03-11 20:05:00,69.6,59.0,29.78,SW,236,0.0,0.0,69,0.00,,---,0.00,VWS V14.01,2013-03-12 00:05:00,
2013-03-11 20:10:00,69.3,59.1,29.78,SW,236,0.0,0.0,70,0.00,,---,0.00,VWS V14.01,2013-03-12 00:10:00,
2013-03-11 20:15:00,69.1,58.5,29.80,SW,236,0.0,0.0,69,0.00,,---,0.00,VWS V14.01,2013-03-12 00:15:00,
2013-03-11 20:20:00,68.9,58.7,29.80,SW,236,0.0,0.0,70,0.00,,---,0.00,VWS V14.01,2013-03-12 00:20:00,
2013-03-11 20:25:00,68.8,58.6,29.80,SW,236,0.0,0.0,70,0.00,,---,0.00,VWS V14.01,2013-03-12 00:25:00,
2013-03-11 20:30:00,68.8,59.0,29.81,SW,236,0.0,0.0,71,0.00,,---,0.00,VWS V14.01,2013-03-12 00:30:00,
2013-03-11 20:35:00,68.8,58.2,29.81,SW,236,0.0,0.0,69,0.00,,---,0.00,VWS V14.01,2013-03-12 00:35:00,
2013-03-11 20:40:00,68.8,58.2,29.81,SW,236,0.0,0.0,69,0.00,,---,0.00,VWS V14.01,2013-03-12 00:40:00,
2013-03-11 20:45:00,68.9,58.7,29.81,SW,236,0.0,0.0,70,0.00,,---,0.00,VWS V14.01,2013-03-12 00:45:00,
2013-03-11 20:51:00,68.9,58.3,29.81,SW,236,0.0,0.0,69,0.00,,---,0.00,VWS V14.01,2013-03-12 00:51:00,
2013-03-11 20:56:00,68.9,57.9,29.81,SW,236,0.0,0.0,68,0.00,,---,0.00,VWS V14.01,2013-03-12 00:56:00,
2013-03-11 21:00:00,68.9,58.3,29.81,SW,236,0.0,0.0,69,0.00,,---,0.00,VWS V14.01,2013-03-12 01:00:00,
2013-03-11 21:01:00,68.9,58.3,29.81,SW,236,0.0,0.0,69,0.00,,---,0.00,VWS V14.01,2013-03-12 01:01:00,
2013-03-11 21:06:00,68.8,58.2,29.81,SW,236,0.0,0.0,69,0.00,,---,0.00,VWS V14.01,2013-03-12 01:06:00,
2013-03-11 21:11:00,68.8,58.6,29.81,SW,236,0.0,0.0,70,0.00,,---,0.00,VWS V14.01,2013-03-12 01:11:00,
2013-03-11 21:16:00,68.4,58.6,29.81,SW,236,0.0,0.0,71,0.00,,---,0.00,VWS V14.01,2013-03-12 01:16:00,
2013-03-11 21:21:00,68.3,58.5,29.81,SW,236,0.0,0.0,71,0.00,,---,0.00,VWS V14.01,2013-03-12 01:21:00,
2013-03-11 21:26:00,67.9,58.2,29.81,SW,236,0.0,0.0,71,0.00,,---,0.00,VWS V14.01,2013-03-12 01:26:00,
2013-03-11 21:30:00,67.8,58.8,29.83,SW,236,0.0,0.0,73,0.00,,---,0.00,VWS V14.01,2013-03-12 01:30:00,
2013-03-11 21:31:00,67.6,58.7,29.83,SW,236,0.0,0.0,73,0.00,,---,0.00,VWS V14.01,2013-03-12 01:31:00,
2013-03-11 21:36:00,67.4,58.8,29.83,SW,236,0.0,0.0,74,0.00,,---,0.00,VWS V14.01,2013-03-12 01:36:00,
2013-03-11 21:42:00,67.6,58.7,29.83,SW,236,0.0,0.0,73,0.00,,---,0.00,VWS V14.01,2013-03-12 01:42:00,
2013-03-11 21:47:00,67.8,59.2,29.83,SW,236,0.0,0.0,74,0.00,,---,0.00,VWS V14.01,2013-03-12 01:47:00,
2013-03-11 21:52:00,68.1,59.5,29.83,SW,236,0.0,0.0,74,0.00,,---,0.00,VWS V14.01,2013-03-12 01:52:00,
2013-03-11 21:57:00,68.1,59.5,29.83,SW,236,0.0,0.0,74,0.00,,---,0.00,VWS V14.01,2013-03-12 01:57:00,
2013-03-11 22:00:00,68.1,59.5,29.83,SW,236,0.0,0.0,74,0.00,,---,0.00,VWS V14.01,2013-03-12 02:00:00,
2013-03-11 22:02:00,68.1,59.5,29.83,SW,236,0.0,0.0,74,0.00,,---,0.00,VWS V14.01,2013-03-12 02:02:00,
2013-03-11 22:07:00,68.1,59.9,29.83,SW,236,0.0,0.0,75,0.00,,---,0.00,VWS V14.01,2013-03-12 02:07:00,
2013-03-11 22:12:00,68.1,59.9,29.83,SW,236,0.0,0.0,75,0.00,,---,0.00,VWS V14.01,2013-03-12 02:12:00,
2013-03-11 22:17:00,68.3,60.5,29.83,SW,236,0.0,0.0,76,0.00,,---,0.00,VWS V14.01,2013-03-12 02:17:00,
2013-03-11 22:22:00,68.3,60.5,29.83,SW,236,0.0,0.0,76,0.00,,---,0.00,VWS V14.01,2013-03-12 02:22:00,
2013-03-11 22:27:00,68.3,60.5,29.83,SW,236,0.0,0.0,76,0.00,,---,0.00,VWS V14.01,2013-03-12 02:27:00,
2013-03-11 22:30:00,68.1,60.3,29.82,SW,236,0.0,0.0,76,0.00,,---,0.00,VWS V14.01,2013-03-12 02:30:00,
2013-03-11 22:32:00,68.1,60.3,29.82,SW,236,0.0,0.0,76,0.00,,---,0.00,VWS V14.01,2013-03-12 02:32:00,
2013-03-11 22:38:00,67.9,60.4,29.82,SW,236,0.0,0.0,77,0.00,,---,0.00,VWS V14.01,2013-03-12 02:38:00,
2013-03-11 22:43:00,67.9,60.4,29.82,SW,236,0.0,0.0,77,0.00,,---,0.00,VWS V14.01,2013-03-12 02:43:00,
2013-03-11 22:48:00,67.9,60.4,29.81,SW,236,0.0,0.0,77,0.00,,---,0.00,VWS V14.01,2013-03-12 02:48:00,
2013-03-11 22:53:00,67.9,60.4,29.81,SSW,206,0.0,0.0,77,0.00,,---,0.00,VWS V14.01,2013-03-12 02:53:00,
2013-03-11 22:58:00,67.9,60.4,29.81,SSW,206,0.0,0.0,77,0.00,,---,0.00,VWS V14.01,2013-03-12 02:58:00,
2013-03-11 23:00:00,67.9,60.4,29.83,SSW,206,0.0,0.0,77,0.00,,---,0.00,VWS V14.01,2013-03-12 03:00:00,
2013-03-11 23:03:00,67.9,60.4,29.83,SSW,206,0.0,0.0,77,0.00,,---,0.00,VWS V14.01,2013-03-12 03:03:00,
2013-03-11 23:08:00,67.9,60.4,29.83,SSW,206,0.0,0.0,77,0.00,,---,0.00,VWS V14.01,2013-03-12 03:08:00,
2013-03-11 23:13:00,67.9,60.4,29.83,SSW,206,0.0,0.0,77,0.00,,---,0.00,VWS V14.01,2013-03-12 03:13:00,
2013-03-11 23:18:00,67.8,60.7,29.83,SSW,206,0.0,0.0,78,0.00,,---,0.00,VWS V14.01,2013-03-12 03:18:00,
2013-03-11 23:23:00,67.6,60.5,29.83,SSW,206,0.0,0.0,78,0.00,,---,0.00,VWS V14.01,2013-03-12 03:23:00,
2013-03-11 23:28:00,67.6,60.5,29.83,SSW,206,0.0,0.0,78,0.00,,---,0.00,VWS V14.01,2013-03-12 03:28:00,
2013-03-11 23:30:00,67.6,60.5,29.83,SSW,206,0.0,0.0,78,0.00,,---,0.00,VWS V14.01,2013-03-12 03:30:00,
2013-03-11 23:33:00,67.4,60.3,29.83,SSW,206,0.0,0.0,78,0.00,,---,0.00,VWS V14.01,2013-03-12 03:33:00,
2013-03-11 23:38:00,67.4,60.3,29.83,SSW,206,0.0,0.0,78,0.00,,---,0.00,VWS V14.01,2013-03-12 03:38:00,
2013-03-11 23:43:00,67.4,60.3,29.83,SSW,206,0.0,0.0,78,0.00,,---,0.00,VWS V14.01,2013-03-12 03:43:00,
2013-03-11 23:48:00,67.3,60.6,29.82,SSW,206,0.0,0.0,79,0.00,,---,0.00,VWS V14.01,2013-03-12 03:48:00,
2013-03-11 23:53:00,67.1,60.4,29.82,SSW,206,0.0,0.0,79,0.00,,---,0.00,VWS V14.01,2013-03-12 03:53:00,
2013-03-11 23:58:00,67.1,60.4,29.82,SSW,206,0.0,0.0,79,0.00,,---,0.00,VWS V14.01,2013-03-12 03:58:00,